Date Time,Air Temp,Sky Temp,Clarity,Light Level,Rain Sensor,Readings
2009-11-19 00:00:00,19.4,6.7,12.7,0.0,7.2,111
2009-11-19 00:05:00,19.4,6.5,12.9,0.0,7.1,112
2009-11-19 00:10:00,19.4,6.6,12.9,0.0,7.1,111
2009-11-19 00:15:00,19.4,6.2,13.2,0.0,7.1,112
2009-11-19 00:20:00,19.4,5.7,13.8,0.0,7.1,111
2009-11-19 00:25:00,19.4,5.6,13.9,0.0,7.1,112
2009-11-19 00:30:00,19.4,6.0,13.5,0.0,7.1,111
2009-11-19 00:35:00,19.4,5.6,13.8,0.0,7.1,112
2009-11-19 00:40:00,19.4,5.7,13.7,0.0,7.0,111
2009-11-19 00:45:00,19.4,5.6,13.9,0.0,6.9,112
2009-11-19 00:50:00,19.4,6.4,13.0,0.0,6.9,111
2009-11-19 00:55:00,19.5,6.1,13.4,0.0,6.7,111
2009-11-19 01:00:00,19.5,6.3,13.2,0.0,6.8,112
2009-11-19 01:05:00,19.5,6.6,12.9,0.0,6.8,111
2009-11-19 01:10:00,19.5,6.5,13.0,0.0,6.8,112
2009-11-19 01:15:00,19.4,7.0,12.5,0.0,6.9,111
2009-11-19 01:20:00,19.1,7.0,12.1,0.0,6.9,112
2009-11-19 01:25:00,19.4,6.8,12.5,0.0,6.9,111
2009-11-19 01:30:00,19.4,6.8,12.6,0.0,6.9,111
2009-11-19 01:35:00,19.4,6.9,12.4,0.0,6.9,112
2009-11-19 01:40:00,19.4,6.6,12.8,0.0,6.9,111
2009-11-19 01:45:00,19.4,7.0,12.4,0.0,6.8,112
2009-11-19 01:50:00,19.4,6.8,12.6,0.0,6.8,111
2009-11-19 01:55:00,19.4,6.8,12.6,0.0,6.8,111
2009-11-19 02:00:00,19.4,5.6,13.8,0.0,6.8,112
2009-11-19 02:05:00,19.4,5.1,14.3,0.0,6.5,112
2009-11-19 02:10:00,19.3,5.8,13.6,0.0,6.4,112
2009-11-19 02:15:00,19.3,5.9,13.4,0.0,6.5,111
2009-11-19 02:20:00,19.3,6.8,12.5,0.0,6.4,111
2009-11-19 02:25:00,19.3,6.6,12.7,0.0,6.4,112
2009-11-19 02:30:00,19.3,6.7,12.5,0.0,6.4,111
2009-11-19 02:35:00,19.2,6.7,12.5,0.0,6.4,111
2009-11-19 02:40:00,19.2,6.6,12.6,0.0,6.4,111
2009-11-19 02:45:00,19.2,6.6,12.7,0.0,6.4,112
2009-11-19 02:50:00,19.2,6.6,12.7,0.0,6.4,112
2009-11-19 02:55:00,19.2,6.6,12.6,0.0,6.3,111
2009-11-19 03:00:00,19.2,6.6,12.7,0.0,6.3,111
2009-11-19 03:05:00,19.2,6.5,12.8,0.0,6.4,112
2009-11-19 03:10:00,19.2,6.6,12.6,0.0,6.3,111
2009-11-19 03:15:00,19.2,6.7,12.5,0.0,6.4,111
2009-11-19 03:20:00,19.2,6.4,12.8,0.0,7.0,112
2009-11-19 03:25:00,19.1,6.5,12.7,0.0,9.2,111
2009-11-19 03:30:00,19.0,6.8,12.3,0.0,9.8,111
2009-11-19 03:35:00,19.0,6.7,12.3,0.0,9.3,112
2009-11-19 03:40:00,19.0,6.6,12.5,0.0,8.8,111
2009-11-19 03:45:00,19.1,6.7,12.3,0.0,8.7,111
2009-11-19 03:50:00,19.1,7.0,12.1,0.0,9.0,111
2009-11-19 03:55:00,19.1,6.5,12.5,0.0,9.1,112
2009-11-19 04:00:00,19.1,6.7,12.4,0.0,9.2,111
2009-11-19 04:05:00,19.0,6.4,12.6,0.0,9.1,111
2009-11-19 04:10:00,19.0,6.6,12.4,0.0,8.8,111
2009-11-19 04:15:00,19.0,6.4,12.6,0.0,9.0,112
2009-11-19 04:20:00,19.0,6.0,13.0,0.0,9.2,112
2009-11-19 04:25:00,19.0,6.5,12.4,0.0,8.8,111
2009-11-19 04:30:00,19.0,6.7,12.3,0.0,8.8,111
2009-11-19 04:35:00,19.1,6.5,12.5,0.0,8.6,112
2009-11-19 04:40:00,19.1,6.2,12.8,0.0,8.6,111
2009-11-19 04:45:00,19.1,6.1,13.0,0.0,9.2,111
2009-11-19 04:50:00,19.0,5.9,13.1,0.0,13.0,112
2009-11-19 04:55:00,18.9,8.1,10.8,0.0,18.5,111
2009-11-19 05:00:00,18.7,7.6,11.2,0.0,17.2,112
2009-11-19 05:05:00,18.6,6.7,11.9,0.0,13.6,111
2009-11-19 05:10:00,18.4,6.6,11.8,0.0,14.4,111
2009-11-19 05:15:00,18.4,6.0,12.4,0.0,15.7,112
2009-11-19 05:20:00,18.3,6.1,12.2,0.0,12.9,111
2009-11-19 05:25:00,18.3,6.1,12.2,0.0,14.5,112
2009-11-19 05:30:00,18.4,6.0,12.4,0.0,14.7,111
2009-11-19 05:35:00,18.3,6.1,12.2,0.0,13.6,112
2009-11-19 05:40:00,18.4,5.8,12.6,0.0,13.0,111
2009-11-19 05:45:00,18.3,5.8,12.5,0.0,12.0,112
2009-11-19 05:50:00,18.4,5.5,12.9,0.0,11.6,112
2009-11-19 05:55:00,18.5,5.6,12.9,0.0,11.3,111
2009-11-19 06:00:00,18.6,5.4,13.2,0.0,11.2,112
2009-11-19 06:05:00,18.7,5.2,13.5,0.0,11.0,111
2009-11-19 06:10:00,18.8,5.1,13.7,0.0,11.0,112
2009-11-19 06:15:00,18.8,4.9,13.9,0.0,11.1,112
2009-11-19 06:20:00,18.8,4.8,14.1,0.1,11.1,111
2009-11-19 06:25:00,18.8,4.8,14.0,0.1,11.0,112
2009-11-19 06:30:00,18.8,4.7,14.2,0.2,11.1,111
2009-11-19 06:35:00,18.8,3.6,15.2,0.5,11.1,111
2009-11-19 06:40:00,18.9,2.6,16.3,0.9,11.0,112
2009-11-19 06:45:00,18.8,4.4,14.4,1.4,11.3,111
2009-11-19 06:50:00,18.8,4.9,13.9,2.2,11.5,112
2009-11-19 06:55:00,18.8,6.2,12.6,2.2,11.7,111
2009-11-19 07:00:00,18.8,6.0,12.8,4.6,12.1,112
2009-11-19 07:05:00,18.7,5.7,13.1,10.6,12.0,112
2009-11-19 07:10:00,18.7,4.5,14.2,19.9,11.9,112
2009-11-19 07:15:00,18.7,4.3,14.4,25.2,11.8,111
2009-11-19 07:20:00,18.7,4.4,14.3,27.6,11.9,112
2009-11-19 07:25:00,18.7,4.9,13.9,28.6,11.9,112
2009-11-19 07:30:00,18.7,4.2,14.5,29.6,11.7,112
2009-11-19 07:35:00,18.8,4.7,14.1,30.1,11.9,111
2009-11-19 07:40:00,18.8,3.5,15.2,31.0,11.8,111
2009-11-19 07:45:00,18.8,4.8,14.0,31.2,11.9,112
2009-11-19 07:50:00,18.8,5.1,13.7,31.4,12.1,111
2009-11-19 07:55:00,18.5,5.2,13.3,31.5,12.0,112
2009-11-19 08:00:00,18.9,5.6,13.2,31.3,12.1,111
2009-11-19 08:05:00,18.9,5.9,13.0,31.4,12.3,112
2009-11-19 08:10:00,18.9,6.2,12.7,31.4,12.5,112
2009-11-19 08:15:00,18.9,5.9,13.0,31.4,12.4,111
2009-11-19 08:20:00,18.9,5.8,13.1,31.7,12.4,112
2009-11-19 08:25:00,18.9,5.5,13.3,31.9,12.4,112
2009-11-19 08:30:00,18.9,5.7,13.2,32.0,12.4,111
2009-11-19 08:35:00,18.9,5.6,13.4,32.0,12.5,112
2009-11-19 08:40:00,18.9,5.1,13.9,32.2,12.6,112
2009-11-19 08:45:00,18.9,4.1,14.8,32.2,12.5,111
2009-11-19 08:50:00,19.0,5.6,13.3,32.2,12.5,112
2009-11-19 08:55:00,19.0,5.1,14.0,32.3,12.5,112
2009-11-19 09:00:00,19.1,3.6,15.4,32.3,12.4,112
2009-11-19 09:05:00,19.1,4.2,14.8,32.3,12.4,111
2009-11-19 09:10:00,19.1,3.9,15.2,32.4,12.5,112
2009-11-19 09:15:00,19.1,4.5,14.5,32.4,12.4,111
2009-11-19 09:20:00,19.1,4.7,14.4,32.4,12.4,112
2009-11-19 09:25:00,19.1,4.8,14.4,32.4,12.4,111
2009-11-19 09:30:00,19.1,5.3,13.9,32.4,12.4,112
2009-11-19 09:35:00,19.2,5.0,14.2,32.4,12.5,112
2009-11-19 09:40:00,18.9,4.4,14.4,32.5,12.4,111
2009-11-19 09:45:00,19.5,2.4,17.1,32.5,12.5,111
2009-11-19 09:50:00,19.5,2.8,16.7,32.5,12.4,111
2009-11-19 09:55:00,19.5,3.6,15.8,32.5,12.5,112
2009-11-19 10:00:00,19.4,2.9,16.5,32.5,12.4,111
2009-11-19 10:05:00,21.1,-0.7,21.8,32.5,12.5,111
2009-11-19 10:10:00,23.4,-4.2,27.6,32.5,12.5,112
2009-11-19 10:15:00,24.1,-10.1,34.2,32.5,12.5,111
2009-11-19 10:20:00,24.4,-10.3,34.7,32.5,12.4,112
2009-11-19 10:25:00,24.7,-15.7,40.4,32.6,12.4,111
2009-11-19 10:30:00,24.8,-15.8,40.5,32.6,12.4,111
2009-11-19 10:35:00,25.0,-15.3,40.3,32.6,12.5,112
2009-11-19 10:40:00,25.3,-15.6,40.9,32.6,12.6,111
2009-11-19 10:45:00,25.5,-14.4,39.9,32.6,12.4,112
2009-11-19 10:50:00,25.6,-14.0,39.6,32.6,12.3,112
2009-11-19 10:55:00,25.6,-14.4,40.0,32.6,12.5,111
2009-11-19 11:00:00,25.6,-16.6,42.3,32.6,12.2,112
2009-11-19 11:05:00,25.6,-15.3,40.9,32.6,12.2,111
2009-11-19 11:10:00,25.5,-16.6,42.2,32.6,12.2,112
2009-11-19 11:15:00,25.3,-16.3,41.5,32.6,12.1,111
2009-11-19 11:20:00,25.1,-15.0,40.2,32.6,12.3,112
2009-11-19 11:25:00,25.2,-15.1,40.3,32.6,12.3,111
2009-11-19 11:30:00,25.4,-14.8,40.2,32.6,12.3,112
2009-11-19 11:35:00,25.4,-15.4,40.8,32.6,12.2,111
2009-11-19 11:40:00,25.5,-12.8,38.3,32.6,12.3,111
2009-11-19 11:45:00,25.6,-15.9,41.6,32.6,12.2,112
2009-11-19 11:50:00,25.7,-14.5,40.2,32.6,12.2,111
2009-11-19 11:55:00,25.9,-12.8,38.7,32.6,12.1,111
2009-11-19 12:00:00,25.8,-13.6,39.4,32.6,12.2,112
2009-11-19 12:05:00,25.8,-14.5,40.3,32.6,12.3,111
2009-11-19 12:10:00,25.4,-15.4,40.7,32.6,12.3,112
2009-11-19 12:15:00,25.8,-16.2,41.9,32.6,12.3,111
2009-11-19 12:20:00,25.7,-15.0,40.7,32.6,12.3,112
2009-11-19 12:25:00,25.6,-14.3,40.0,32.6,12.3,111
2009-11-19 12:30:00,25.7,-15.4,41.1,32.6,12.3,112
2009-11-19 12:35:00,25.9,-14.8,40.7,32.6,12.4,112
2009-11-19 12:40:00,26.0,-14.5,40.5,32.6,12.3,111
2009-11-19 12:45:00,26.2,-15.0,41.2,32.6,12.2,111
2009-11-19 12:50:00,26.2,-15.7,41.8,32.6,12.1,111
2009-11-19 12:55:00,26.1,-13.2,39.3,32.6,12.3,112
2009-11-19 13:00:00,26.2,-15.4,41.5,32.6,12.2,112
2009-11-19 13:05:00,26.1,-14.4,40.5,32.6,12.2,111
2009-11-19 13:10:00,26.1,-15.1,41.1,32.6,11.7,111
2009-11-19 13:15:00,26.1,-15.4,41.5,32.6,9.5,112
2009-11-19 13:20:00,26.1,-16.3,42.4,32.6,8.8,111
2009-11-19 13:25:00,26.0,-15.9,41.9,32.6,8.6,112
2009-11-19 13:30:00,26.1,-15.6,41.7,32.6,8.7,112
2009-11-19 13:35:00,26.1,-16.7,42.7,32.6,8.6,111
2009-11-19 13:40:00,25.9,-15.9,41.7,32.6,8.5,112
2009-11-19 13:45:00,25.8,-15.8,41.6,32.6,8.6,111
2009-11-19 13:50:00,25.8,-15.8,41.6,32.6,8.5,112
2009-11-19 13:55:00,25.7,-15.7,41.4,32.6,8.5,111
2009-11-19 14:00:00,25.6,-15.6,41.2,32.6,8.6,112
2009-11-19 14:05:00,25.5,-15.4,40.8,32.6,8.5,111
2009-11-19 14:10:00,25.3,-14.9,40.2,32.6,8.4,111
2009-11-19 14:15:00,25.2,-15.5,40.7,32.6,8.2,112
2009-11-19 14:20:00,25.1,-15.4,40.5,32.6,8.2,111
2009-11-19 14:25:00,25.0,-16.1,41.2,32.5,8.2,112
2009-11-19 14:30:00,25.0,-16.2,41.2,32.5,8.2,111
2009-11-19 14:35:00,25.0,-15.9,40.9,32.6,8.2,112
2009-11-19 14:40:00,25.3,-16.0,41.3,32.6,8.1,111
2009-11-19 14:45:00,25.6,-15.4,41.0,32.6,8.2,112
2009-11-19 14:50:00,26.0,-15.8,41.8,32.6,8.1,111
2009-11-19 14:55:00,26.1,-16.1,42.2,32.6,8.0,112
2009-11-19 15:00:00,26.0,-15.8,41.8,32.6,8.0,111
2009-11-19 15:05:00,25.9,-16.5,42.3,32.6,8.0,112
2009-11-19 15:10:00,25.7,-15.8,41.4,32.6,7.9,111
2009-11-19 15:15:00,25.7,-16.0,41.7,32.6,7.9,112
2009-11-19 15:20:00,25.6,-15.8,41.3,32.5,7.8,111
2009-11-19 15:25:00,25.5,-15.7,41.2,32.5,7.8,112
2009-11-19 15:30:00,25.5,-15.6,41.1,32.5,7.8,111
2009-11-19 15:35:00,25.4,-16.0,41.4,32.5,7.8,112
2009-11-19 15:40:00,25.2,-16.5,41.7,32.4,7.8,111
2009-11-19 15:45:00,24.9,-16.2,41.1,32.4,7.8,112
2009-11-19 15:50:00,24.8,-16.2,40.9,32.4,7.8,111
2009-11-19 15:55:00,24.6,-16.5,41.1,32.2,7.8,112
2009-11-19 16:00:00,23.9,-16.8,40.7,32.1,7.7,111
2009-11-19 16:05:00,23.8,-17.0,40.8,31.9,7.6,112
2009-11-19 16:10:00,24.1,-17.0,41.0,31.6,7.6,111
2009-11-19 16:15:00,23.6,-17.1,40.7,31.2,7.5,111
2009-11-19 16:20:00,23.5,-17.3,40.8,30.7,7.5,112
2009-11-19 16:25:00,24.0,-17.3,41.3,29.7,7.5,111
2009-11-19 16:30:00,23.9,-17.3,41.2,27.9,7.4,112
2009-11-19 16:35:00,24.0,-17.4,41.4,24.3,7.4,111
2009-11-19 16:40:00,23.9,-17.3,41.2,19.5,7.4,112
2009-11-19 16:45:00,23.9,-17.1,41.1,13.9,7.4,111
2009-11-19 16:50:00,23.9,-17.1,41.0,8.9,7.5,112
2009-11-19 16:55:00,23.9,-16.8,40.7,5.2,7.5,111
2009-11-19 17:00:00,23.8,-17.1,40.9,2.8,7.6,112
2009-11-19 17:05:00,23.8,-17.2,41.0,1.4,7.6,111
2009-11-19 17:10:00,23.8,-16.9,40.7,0.7,7.6,112
2009-11-19 17:15:00,23.9,-16.9,40.8,0.3,7.5,111
2009-11-19 17:20:00,23.9,-17.1,40.9,0.1,7.6,112
2009-11-19 17:25:00,23.8,-16.9,40.8,0.1,7.5,111
2009-11-19 17:30:00,23.9,-16.8,40.7,0.0,7.6,112
2009-11-19 17:35:00,23.9,-16.9,40.8,0.0,7.6,111
2009-11-19 17:40:00,23.9,-16.7,40.6,0.0,7.6,111
2009-11-19 17:45:00,23.5,-16.5,40.0,0.0,7.6,112
2009-11-19 17:50:00,23.9,-16.0,39.9,0.0,7.7,111
2009-11-19 17:55:00,24.0,-15.4,39.4,0.0,7.7,112
2009-11-19 18:00:00,24.0,-14.9,38.8,0.0,7.8,111
2009-11-19 18:05:00,23.9,-14.7,38.6,0.0,7.8,111
2009-11-19 18:10:00,23.9,-14.2,38.1,0.0,7.8,112
2009-11-19 18:15:00,23.9,-14.2,38.1,0.0,7.8,112
2009-11-19 18:20:00,23.9,-13.8,37.7,0.0,7.9,111
2009-11-19 18:25:00,23.9,-11.9,35.9,0.0,7.9,112
2009-11-19 18:30:00,23.9,-13.0,36.9,0.0,8.0,111
2009-11-19 18:35:00,23.9,-13.0,36.9,0.0,8.0,112
2009-11-19 18:40:00,23.9,-13.2,37.1,0.0,8.1,112
2009-11-19 18:45:00,23.5,-11.5,35.1,0.0,8.1,111
2009-11-19 18:50:00,23.3,-12.6,35.9,0.0,8.2,112
2009-11-19 18:55:00,23.2,-12.6,35.8,0.0,8.2,112
2009-11-19 19:00:00,23.1,-12.9,36.0,0.0,8.1,111
2009-11-19 19:05:00,23.2,-12.9,36.0,0.0,8.1,112
2009-11-19 19:10:00,23.3,-13.4,36.8,0.0,8.3,111
2009-11-19 19:15:00,23.7,-13.4,37.2,0.0,8.3,112
2009-11-19 19:20:00,23.8,-13.3,37.1,0.0,8.3,112
2009-11-19 19:25:00,24.2,-13.3,37.5,0.0,8.3,111
2009-11-19 19:30:00,23.9,-13.4,37.4,0.0,8.3,112
2009-11-19 19:35:00,23.9,-13.1,37.1,0.0,8.3,111
2009-11-19 19:40:00,23.5,-13.4,37.0,0.0,8.3,112
2009-11-19 19:45:00,23.3,-13.2,36.5,0.0,8.2,111
2009-11-19 19:50:00,23.4,-13.4,36.8,0.0,8.3,112
2009-11-19 19:55:00,23.7,-13.2,36.9,0.0,8.3,112
2009-11-19 20:00:00,23.8,-12.9,36.8,0.0,8.3,111
2009-11-19 20:05:00,23.8,-12.5,36.3,0.0,8.3,112
2009-11-19 20:10:00,23.8,-12.3,36.1,0.0,8.4,111
2009-11-19 20:15:00,23.8,-12.2,36.0,0.0,8.3,111
2009-11-19 20:20:00,23.8,-6.7,30.5,0.0,8.3,112
2009-11-19 20:25:00,23.9,-11.6,35.5,0.0,8.4,111
2009-11-19 20:30:00,23.9,-12.2,36.1,0.0,8.3,111
2009-11-19 20:35:00,23.8,-12.8,36.5,0.0,8.2,112
2009-11-19 20:40:00,23.7,-12.8,36.5,0.0,8.2,111
2009-11-19 20:45:00,23.8,-13.1,37.0,0.0,8.2,111
2009-11-19 20:50:00,23.8,-13.0,36.8,0.0,8.1,112
2009-11-19 20:55:00,23.8,-12.8,36.6,0.0,8.1,112
2009-11-19 21:00:00,23.8,-12.6,36.4,0.0,8.0,111
2009-11-19 21:05:00,23.8,-12.6,36.4,0.0,8.0,111
2009-11-19 21:10:00,23.8,-13.1,36.9,0.0,7.9,112
2009-11-19 21:15:00,23.9,-13.1,37.0,0.0,7.9,111
2009-11-19 21:20:00,23.9,-13.6,37.5,0.0,7.8,111
2009-11-19 21:25:00,23.9,-13.8,37.7,0.0,7.7,112
2009-11-19 21:30:00,23.9,-13.8,37.8,0.0,7.6,111
2009-11-19 21:35:00,23.9,-14.2,38.1,0.0,7.5,111
2009-11-19 21:40:00,23.9,-14.4,38.3,0.0,7.4,111
2009-11-19 21:45:00,24.0,-14.3,38.2,0.0,7.4,112
2009-11-19 21:50:00,23.9,-14.7,38.6,0.0,7.3,112
2009-11-19 21:55:00,23.9,-15.1,39.1,0.0,7.3,111
2009-11-19 22:00:00,23.9,-15.2,39.2,0.0,7.2,112
2009-11-19 22:05:00,24.0,-15.3,39.3,0.0,7.1,111
2009-11-19 22:10:00,23.9,-15.4,39.3,0.0,7.1,112
2009-11-19 22:15:00,24.0,-15.6,39.5,0.0,7.0,111
2009-11-19 22:20:00,24.0,-15.7,39.7,0.0,7.0,112
2009-11-19 22:25:00,24.0,-15.6,39.6,0.0,7.0,111
2009-11-19 22:30:00,24.0,-16.0,40.0,0.0,6.9,112
2009-11-19 22:35:00,24.0,-16.0,40.0,0.0,6.9,112
2009-11-19 22:40:00,24.0,-15.7,39.6,0.0,6.8,111
2009-11-19 22:45:00,24.0,-15.6,39.6,0.0,6.8,112
2009-11-19 22:50:00,24.0,-15.3,39.2,0.0,6.8,111
2009-11-19 22:55:00,24.0,-15.2,39.2,0.0,6.8,111
2009-11-19 23:00:00,24.0,-15.2,39.2,0.0,6.9,112
2009-11-19 23:05:00,24.0,-15.2,39.2,0.0,6.9,111
2009-11-19 23:10:00,24.0,-14.9,38.9,0.0,6.9,112
2009-11-19 23:15:00,24.0,-14.7,38.6,0.0,6.9,112
2009-11-19 23:20:00,23.9,-14.4,38.3,0.0,6.9,111
2009-11-19 23:25:00,23.9,-14.8,38.7,0.0,6.9,111
2009-11-19 23:30:00,23.9,-14.9,38.8,0.0,6.9,112
2009-11-19 23:35:00,23.9,-15.1,39.0,0.0,6.9,112
2009-11-19 23:40:00,23.9,-14.2,38.1,0.0,6.9,111
2009-11-19 23:45:00,23.9,-13.9,37.8,0.0,6.9,112
2009-11-19 23:50:00,23.9,-14.0,37.9,0.0,6.9,111
2009-11-19 23:55:00,23.9,-13.9,37.8,0.0,7.0,111
